Regional Weather Roundup
Issued by NWS Green Bay, WI

Home | Current Version | Previous Version | Text Only | Print | Product List | Glossary On
Versions: 1 2 3 4 5 6 7 8 9 10 11 12 13 14 15 16 17 18 19 20 21 22 23 24 25 26 27 28 29 30 31 32 33 34 35 36 37 38 39 40 41 42 43 44 45 46 47 48 49 50
000
ASUS43 KGRB 061459
RWRGRB

NORTH-CENTRAL AND NORTHEAST WISCONSIN REGIONAL WEATHER ROUNDUP
NATIONAL WEATHER SERVICE GREEN BAY WI
900 AM CST FRI MAR 06 2015

WIZ005-009-010>012-018-019-061600-
NORTH CENTRAL WISCONSIN

CITY           SKY/WX    TMP DP  RH WIND       PRES   REMARKS
IRONWOOD       CLOUDY    14   3  62 SW13      29.95S WCI   0
MANITOWISH WTR NOT AVBL
ARBOR VITAE    NOT AVBL
EAGLE RIVER    NOT AVBL
LAND O LAKES   NOT AVBL
RHINELANDER    CLOUDY     9  -2  61 SW18G25   30.02F WCI -10
PHILLIPS       NOT AVBL
ANTIGO         NOT AVBL
TOMAHAWK       NOT AVBL
MERRILL        NOT AVBL
$$

WIZ013-073-061600-
NORTHEAST WISCONSIN

CITY           SKY/WX    TMP DP  RH WIND       PRES   REMARKS
IRON MOUNTAIN  PTSUNNY    9  -2  61 S8        30.05F WCI  -3
MARINETTE      CLOUDY     9   0  66 SW12      30.18F WCI  -6
$$

WIZ017-030-035>037-045-061600-
CENTRAL WISCONSIN

CITY           SKY/WX    TMP DP  RH WIND       PRES   REMARKS
MEDFORD        NOT AVBL
WAUSAU         MOSUNNY    8  -1  66 S8        30.11F WCI  -4
MOSINEE        SUNNY      9  18 100 S14       30.14S WCI  -8
MARSHFIELD     MOSUNNY   11   0  61 SW15      30.11F WCI  -5
WISC RAPIDS    SUNNY     12   0  58 SW13G23   30.18F WCI  -3
STEVENS POINT  NOT AVBL
WAUPACA        NOT AVBL
SHAWANO        NOT AVBL
CLINTONVILLE   NOT AVBL
$$

WIZ038-039-048-051-061600-
FOX VALLEY

CITY           SKY/WX    TMP DP  RH WIND       PRES   REMARKS
NWS GREEN BAY  CLOUDY     9   0  67 SW20      30.23F WCI -10
APPLETON       PTSUNNY    9   0  66 S13       30.22F WCI  -7
OSHKOSH        PTSUNNY   11   1  64 S15G24    30.23F WCI  -5
FOND DU LAC    PTSUNNY   13   1  59 S17G24    30.24F WCI  -4
$$

WIZ022-050-052-061600-
EAST CENTRAL WISCONSIN

CITY           SKY/WX    TMP DP  RH WIND       PRES   REMARKS
STURGEON BAY   CLOUDY    12   0  57 SW16G22   30.21F WCI  -4
MANITOWOC      NOT AVBL
SHEBOYGAN      MOSUNNY   13   2  61 SW15      30.27F WCI  -3
$$

LMZ563-521-522-541>543-061600-
LAKESHORE

STATION/POSITION TIME  TEMP    WIND        PRES    VSBY  WAVE
                       AIR SEA DIR/SP/G                  HT/PER
                 (UTC) (F)     (DEG/KT/KT) (MB)    (MI)  (FT/S)
SHEBOYGAN LKSHOR 1400    9     210/ 12/ 14 1028.0F
KEWAUNEE LKSHORE 1400   12     230/ 12/ 17 1023.4F
TWO RIVERS CG    1400   10                   N/A       6   1
NORTHPORT PIER   1400   14     220/  7/ 20 1022.4F
CHAMBERS ISLAND  1400    6     190/  8/ 15 1022.7F
MENOMINEE LKSHOR 1400    8     210/  7     1023.2F
$$



USA.gov is the U.S. government's official web portal to all federal, state and local government web resources and services.